FW7345 Weather Reports


time (UTC)temp
C
wind
direction
speed
KPH
gust
KPH
rain 1hr
cm
rain 24hr
cm
rain mn
cm
humidity
%
barometer
mb
20260506073053 23 184 0.0 9.7 0.00 0.00 0.00 99 1009.3
20260506071555 23 187 0.0 8.0 0.00 0.00 0.00 99 1009.5
20260506061556 23 171 0.0 4.8 0.00 0.00 0.00 98 1009.9
20260506044638 24 150 0.0 3.2 0.00 0.00 0.00 96 1009.8
20260506043058 24 178 0.0 4.8 0.00 0.00 0.00 96 1009.7
20260506041553 24 0 1.6 6.4 0.00 0.00 0.00 95 1009.4
20260506040055 25 181 0.0 6.4 0.00 0.00 0.00 94 1009.6
20260506034551 25 198 1.6 11.3 0.00 0.00 0.00 94 1009.3
20260506033050 25 0 0.0 8.0 0.00 0.00 0.00 94 1009.1
20260506031548 25 0 1.6 6.4 0.00 0.00 0.00 94 1008.9
20260506030058 25 154 0.0 9.7 0.00 0.00 0.00 93 1008.9
20260506024558 25 194 1.6 6.4 0.00 0.00 0.00 93 1008.7
20260506023058 25 150 0.0 11.3 0.00 0.00 0.00 92 1008.7
20260506021605 25 0 1.6 6.4 0.00 0.00 0.00 92 1008.3
20260506020051 25 176 0.0 8.0 0.00 0.00 0.00 91 1008.1
20260506014552 25 197 0.0 6.4 0.00 0.00 0.00 91 1008.0
20260506013059 25 172 0.0 8.0 0.00 0.00 0.00 90 1007.6
20260506011552 25 200 1.6 9.7 0.00 0.00 0.00 89 1007.3
20260506010115 26 170 1.6 9.7 0.00 0.00 0.00 89 1007.3
20260506004553 26 195 1.6 9.7 0.00 0.00 0.00 88 1007.1
20260506003055 26 151 0.0 9.7 0.00 0.00 0.00 87 1006.9
20260506001558 26 164 1.6 9.7 0.00 0.00 0.00 86 1007.0
20260506000057 26 0 1.6 11.3 0.00 0.00 0.00 86 1007.0
20260505234608 26 238 3.2 17.7 0.00 0.00 0.00 85 1006.9
20260505233057 27 164 3.2 11.3 0.00 0.00 0.00 86 1006.8
20260505231553 27 150 4.8 12.9 0.00 0.00 0.00 85 1006.9
20260505230053 27 134 3.2 17.7 0.00 0.00 0.00 84 1006.9
20260505224551 27 124 4.8 16.1 0.00 0.00 0.00 84 1006.8
20260505223053 28 196 1.6 17.7 0.00 0.00 0.00 81 1007.0
20260505221550 28 246 3.2 16.1 0.00 0.00 0.00 81 1007.0
20260505220056 27 183 3.2 12.9 0.00 0.00 0.00 81 1007.2
20260505214604 28 140 3.2 12.9 0.00 0.00 0.00 81 1007.4
20260505213058 28 127 3.2 14.5 0.00 0.00 0.00 81 1007.4
20260505211550 28 143 0.0 16.1 0.00 0.00 0.00 82 1007.7
20260505210057 28 189 3.2 12.9 0.00 0.00 0.00 82 1008.0
20260505204557 28 259 1.6 14.5 0.00 0.00 0.00 81 1008.2
20260505203055 28 113 3.2 14.5 0.00 0.00 0.00 80 1008.3
20260505201553 28 224 1.6 11.3 0.00 0.00 0.00 81 1008.6
20260505194605 28 146 0.0 11.3 0.00 0.00 0.00 81 1009.0
20260505193052 28 82 0.0 9.7 0.00 0.00 0.00 84 1009.3
20260505191550 27 204 0.0 14.5 0.00 0.00 0.00 85 1009.3
20260505190052 27 238 0.0 12.9 0.00 0.00 0.00 84 1009.2
20260505184551 27 144 1.6 9.7 0.00 0.00 0.00 84 1009.3
20260505183055 27 344 3.2 11.3 0.00 0.00 0.00 84 1009.4
20260505181550 27 0 1.6 12.9 0.00 0.00 0.00 85 1009.6
20260505180107 27 96 1.6 12.9 0.00 0.00 0.00 85 1009.8
20260505174602 27 210 3.2 8.0 0.00 0.00 0.00 85 1009.9
20260505173048 26 204 0.0 11.3 0.00 0.00 0.00 87 1010.0
20260505171547 26 311 1.6 11.3 0.00 0.00 0.00 87 1009.9
20260505170051 26 205 1.6 8.0 0.00 0.00 0.00 87 1009.9
20260505164552 26 217 1.6 9.7 0.00 0.00 0.00 88 1010.0
20260505163055 26 194 3.2 11.3 0.00 0.00 0.00 88 1010.0
20260505161607 26 217 1.6 11.3 0.00 0.00 0.00 89 1009.9
20260505153052 25 76 3.2 11.3 0.00 0.00 0.00 93 1009.7
20260505151552 24 185 1.6 9.7 0.00 0.00 0.00 94 1009.7
20260505140107 23 115 1.6 6.4 0.00 0.00 0.00 97 1009.5
20260505124550 21 0 1.6 6.4 0.00 0.00 0.00 100 1009.6
20260505123102 21 0 0.0 4.8 0.00 0.00 0.00 100 1009.3
20260505121549 -17 0.0 0.0 0.00 0.00 0.00 1009.1
20260505120053 -17 0.0 0.0 0.00 0.00 0.00 1008.9
20260505114552 -17 0.0 0.0 0.00 0.00 0.00 100 1008.6
20260505113110 20 0 0.0 1.6 0.00 0.00 0.00 100 1009.0
20260505111552 20 0 0.0 4.8 0.00 0.00 0.00 100 1008.8
20260505101600 20 0 0.0 1.6 0.00 0.00 0.00 99 1008.9
20260505100053 20 203 0.0 3.2 0.00 0.00 0.00 99 1008.8
20260505094557 20 0 0.0 3.2 0.00 0.00 0.00 99 1009.1
20260505093057 20 149 0.0 3.2 0.00 0.00 0.00 99 1008.9
20260505091608 20 0 0.0 3.2 0.00 0.00 0.00 99 1009.1
20260505090053 20 0 0.0 3.2 0.00 0.00 0.00 98 1009.3
20260505084551 19 0 0.0 1.6 0.00 0.00 0.00 98 1009.3
20260505083100 20 0 0.0 0.0 0.00 0.00 0.00 98 1009.6
20260505081559 20 0 0.0 0.0 0.00 0.00 0.00 97 1009.7